Location: Meanaryar
(48.4161°N, 4.7315°W)
Time: 11:36:08
(UTC+00:00)

Cosmos 1300 Rocket - Pass Details

Date: 18 September 2020
Orbit: 601 x 627 km, 82.5° (Epoch: 24 October)

Event Time Altitude Azimuth Distance (km) Brightness Sun altitude
Rises 19:53:32 0° 185° (S) 2,876 6.8 -15.3°
Reaches altitude 10° 19:55:44 10° 184° (S) 1,979 6.0 -15.6°
Maximum altitude 20:00:07 80° 98° (E) 638 3.4 -16.3°
Drops below altitude 10° 20:04:34 10° 12° (NNE) 2,009 6.3 -17.0°
Sets 20:06:49 0° 11° (N) 2,923 7.2 -17.3°
